Orbital Elements at Epoch 2459200.5 (2020-Dec-17.0) TDB
Reference: JPL 13 (heliocentric ecliptic J2000)
Element | Value | Uncertainty (1-sigma) | Units |
e | .1300233532881468 | 3.8514e-08 | |
a | 2.375820473336828 | 1.1645e-08 | au |
q | 2.066908328582941 | 9.3146e-08 | au |
i | .7663601290614751 | 4.6378e-06 | deg |
node | 326.2781922993267 | 0.00042812 | deg |
peri | 169.2594932855188 | 0.00042892 | deg |
M | 11.3714347964033 | 2.8417e-05 | deg |
tp | 2459158.249522427245 (2020-Nov-04.74952243) | 0.00010538 | TDB |
period | 1337.577200988084 3.66 | 9.8341e-06 2.692e-08 | d yr |
n | .2691433434526722 | 1.9788e-09 | deg/d |
Q | 2.684732618090715 | 1.3159e-08 | au |
|
| | Orbit Determination Parameters
Additional Information
|